Probability
13 19 32 42 39 39 45 45 42 45 45 45 45 48 58 52 52 45 45 45 45 55 58 55 52 52 52 48 48 48 55 61 61 58 52 55 55 45 42 55 55 65 61
6 23 29 35 42 42 42 45 42 42 45 39 42 48 45 42 39 42 35 42 45 52 48 48 45 48 45 55 45 52 55 48 52 48 45 45 52 55 52 48 55 68 58
6 19 23 26 35 45 42 48 42 42 42 39 42 48 42 35 39 29 32 42 39 45 42 45 42 39 42 48 42 48 55 55 32 26 26 32 35 35 35 39 39 39 48
10 13 19 29 32 32 35 39 42 42 42 45 48 45 42 42 35 35 35 39 32 42 35 35 39 32 35 35 42 48 42 35 26 26 16 16 23 32 35 32 35 45 45
6 13 19 29 32 29 32 29 32 35 35 45 45 48 45 35 32 32 32 32 39 26 29 35 39 29 32 35 35 29 29 26 19 19 26 39 45 39 35 39 39 42 45
6 16 19 26 26 26 32 32 26 32 35 32 35 39 35 32 32 29 29 32 32 29 26 35 35 32 26 26 26 26 26 13 19 26 32 35 35 35 35 35 35 42 42
10 16 19 23 19 29 35 29 23 29 26 32 35 35 23 29 23 19 26 29 19 26 23 29 32 23 19 26 23 26 19 13 13 26 32 29 32 29 32 32 35 35 45
10 10 16 23 19 23 35 23 23 29 29 39 35 29 32 32 16 19 23 23 23 26 16 19 23 26 23 23 26 26 19 16 10 6 23 26 26 29 26 29 29 32 32
13 13 10 16 13 23 35 29 16 19 32 29 26 29 32 26 16 13 10 19 19 19 13 16 19 19 26 16 19 23 10 13 6 6 6 23 26 26 16 19 26 32 32
10 10 10 16 13 13 26 35 19 16 19 19 26 19 23 16 10 6 10 10 13 16 6 10 16 16 26 23 16 16 6 3 10 10 19 23 23 19 16 19 19 26 26
10 13 10 13 13 13 10 10 16 13 13 16 10 6 3 0 0 3 6 13 6 3 3 13 16 13 10 6 10 6 3 3 10 19 23 16 23 16 16 16 23 26 23
10 13 13 10 13 10 0 16 26 6 13 3 6 3 3 0 0 0 0 13 13 6 10 10 6 6 6 6 0 0 3 0 6 16 13 3 19 13 19 13 23 19 23
10 10 10 10 10 10 13 13 13 16 10 0 0 3 6 6 3 0 13 6 10 6 3 3 3 3 3 0 0 3 3 6 10 10 10 10 6 13 10 10 13 16 13
10 13 10 13 10 13 13 10 13 13 13 0 3 0 3 6 3 3 6 13 6 3 3 0 3 3 0 0 0 0 0 6 0 6 6 0 0 3 3 6 6 16 13
6 3 10 6 10 10 13 13 10 13 6 0 6 3 0 3 3 0 3 6 3 6 3 6 0 0 0 0 0 0 0 0 0 0 3 3 3 0 0 3 3 6 13
6 3 10 10 6 10 13 16 13 6 10 0 0 0 0 3 0 0 3 6 3 6 6 3 3 3 0 0 0 0 0 0 0 0 0 0 0 0 3 0 3 0 6
6 3 3 13 16 10 10 13 13 10 6 3 0 3 0 3 3 0 0 0 3 3 3 3 3 6 3 3 3 0 0 0 0 0 0 0 0 0 0 0 3 3 3
3 3 3 3 10 13 10 13 10 10 3 3 3 0 0 3 0 0 3 3 3 3 3 6 6 6 6 3 0 0 0 0 0 0 0 0 0 0 0 0 0 3 0
0 3 10 6 6 10 10 13 10 10 6 3 3 3 3 6 3 6 3 3 3 6 6 0 0 0 0 3 0 0 0 0 0 0 0 0 3 3 3 0 0 0 3
3 6 3 10 6 6 6 6 6 6 6 6 3 3 3 6 6 6 6 3 3 6 3 0 0 0 0 0 0 0 0 0 0 3 0 0 3 3 0 0 0 0 0
3 6 3 6 10 6 3 6 6 3 3 3 3 3 3 0 6 10 6 10 6 6 3 0 0 0 0 0 0 0 0 0 0 0 0 0 0 0 0 0 3 3 3
3 3 0 6 6 0 3 3 3 0 0 0 0 3 3 0 0 3 6 10 6 6 6 0 0 0 0 0 0 0 0 0 0 0 0 0 0 0 0 0 0 0 3
10 3 3 3 6 10 6 0 0 0 0 0 6 0 0 0 3 10 10 6 3 6 3 3 3 0 0 0 0 0 0 0 0 0 0 0 0 0 0 0 0 0 0
13 10 3 6 3 6 13 6 3 3 3 3 3 0 0 0 6 6 3 3 3 0 0 0 0 3 0 0 0 0 0 0 0 0 0 0 0 0 0 0 0 0 0
13 10 10 3 6 6 10 10 6 3 3 3 6 3 3 0 3 6 6 3 3 0 0 0 0 0 0 0 0 0 0 0 0 0 0 0 0 0 0 0 3 3 3
13 10 10 13 6 10 10 6 6 6 6 6 3 3 3 0 0 6 3 6 6 0 0 0 0 0 0 0 0 0 3 3 0 0 0 0 0 0 0 0 0 0 0
Height
5898 5898 5897 5897 5897 5897 5896 5896 5896 5896 5896 5896 5896 5896 5896 5896 5895 5895 5895 5894 5894 5893 5893 5893 5892 5891 5891 5890 5890 5889 5888 5888 5887 5887 5886 5886 5885 5885 5885 5884 5884 5883 5882
5898 5898 5897 5897 5897 5897 5897 5896 5896 5897 5897 5897 5896 5896 5896 5896 5895 5895 5895 5894 5894 5893 5893 5893 5892 5892 5891 5890 5889 5889 5888 5887 5887 5886 5886 5885 5885 5884 5884 5883 5883 5882 5882
5899 5898 5898 5898 5897 5897 5897 5896 5896 5896 5897 5896 5896 5896 5896 5896 5895 5895 5895 5894 5894 5893 5893 5892 5892 5891 5891 5890 5889 5888 5888 5887 5886 5886 5885 5885 5884 5883 5883 5883 5882 5881 5881
5899 5898 5898 5898 5898 5897 5897 5897 5896 5896 5896 5896 5896 5896 5896 5895 5895 5895 5894 5894 5893 5893 5892 5892 5891 5891 5890 5889 5889 5888 5887 5887 5886 5885 5884 5884 5883 5883 5882 5882 5881 5881 5880
5899 5898 5898 5898 5898 5897 5897 5897 5896 5896 5896 5896 5895 5895 5895 5895 5894 5894 5894 5893 5893 5892 5892 5891 5891 5890 5889 5889 5888 5887 5887 5886 5885 5884 5884 5883 5882 5882 5881 5881 5880 5879 5879
5898 5898 5898 5898 5897 5897 5896 5896 5896 5895 5895 5895 5895 5895 5895 5894 5894 5893 5893 5892 5892 5891 5891 5890 5890 5889 5889 5888 5887 5886 5886 5885 5884 5883 5882 5882 5881 5880 5880 5879 5879 5878 5877
5898 5898 5897 5897 5897 5896 5896 5896 5895 5895 5894 5894 5894 5894 5893 5893 5893 5892 5892 5891 5891 5890 5890 5889 5889 5888 5888 5887 5886 5885 5885 5884 5883 5882 5881 5880 5880 5879 5879 5878 5877 5877 5876
5897 5897 5896 5896 5896 5896 5895 5895 5895 5894 5894 5893 5893 5893 5892 5892 5892 5891 5891 5890 5890 5889 5889 5888 5888 5887 5886 5886 5885 5884 5883 5883 5882 5881 5880 5879 5878 5877 5877 5876 5876 5875 5874
5896 5896 5896 5895 5895 5895 5894 5894 5894 5893 5893 5892 5892 5892 5891 5891 5890 5890 5890 5889 5888 5888 5887 5887 5886 5885 5885 5884 5884 5883 5882 5881 5880 5879 5878 5877 5877 5876 5875 5874 5874 5873 5873
5895 5895 5894 5894 5894 5893 5893 5893 5892 5892 5892 5891 5891 5891 5890 5889 5889 5888 5888 5888 5887 5886 5886 5885 5884 5884 5883 5883 5882 5881 5880 5880 5879 5878 5877 5876 5875 5874 5873 5873 5872 5872 5871
5893 5893 5893 5893 5892 5892 5892 5891 5891 5891 5890 5890 5890 5889 5888 5888 5887 5887 5886 5886 5885 5885 5884 5883 5882 5882 5882 5881 5880 5880 5879 5878 5877 5876 5875 5874 5873 5872 5871 5871 5870 5870 5869
5892 5891 5891 5891 5890 5890 5890 5890 5889 5889 5889 5888 5888 5887 5887 5886 5885 5885 5884 5884 5883 5883 5882 5881 5881 5880 5880 5879 5879 5878 5877 5876 5875 5874 5873 5872 5871 5870 5869 5869 5868 5867 5867
5890 5889 5889 5889 5889 5888 5888 5888 5887 5887 5886 5886 5886 5885 5885 5884 5884 5883 5882 5881 5881 5880 5880 5879 5879 5878 5877 5877 5876 5876 5875 5874 5873 5872 5871 5870 5869 5868 5867 5867 5866 5865 5864
5888 5887 5887 5887 5887 5886 5886 5886 5885 5885 5884 5884 5884 5883 5883 5882 5882 5881 5880 5879 5878 5878 5877 5877 5876 5876 5875 5875 5874 5874 5873 5872 5871 5870 5869 5868 5867 5866 5865 5864 5864 5863 5862
5886 5885 5885 5885 5884 5884 5884 5884 5883 5883 5882 5882 5881 5881 5880 5880 5879 5879 5878 5877 5876 5876 5875 5875 5874 5874 5873 5873 5872 5871 5871 5870 5869 5868 5867 5866 5865 5864 5863 5863 5862 5861 5860
5883 5883 5882 5882 5882 5882 5881 5881 5881 5880 5880 5879 5879 5878 5878 5877 5877 5876 5876 5875 5874 5873 5873 5873 5872 5871 5871 5870 5870 5869 5868 5868 5867 5866 5865 5864 5863 5862 5862 5861 5860 5859 5858
5881 5880 5880 5880 5879 5879 5879 5879 5878 5878 5877 5877 5876 5876 5875 5875 5874 5874 5873 5872 5871 5871 5870 5870 5869 5869 5869 5868 5867 5867 5866 5865 5865 5864 5863 5862 5861 5860 5860 5859 5858 5857 5856
5878 5878 5877 5877 5877 5876 5876 5876 5876 5875 5874 5874 5873 5873 5873 5872 5872 5871 5870 5870 5869 5868 5868 5868 5867 5866 5866 5866 5865 5864 5864 5863 5862 5861 5861 5860 5859 5858 5858 5857 5856 5855 5854
5875 5875 5874 5874 5874 5873 5873 5873 5873 5872 5872 5871 5871 5870 5870 5869 5869 5868 5867 5867 5866 5865 5865 5865 5864 5864 5864 5863 5862 5862 5861 5860 5860 5859 5858 5857 5856 5856 5855 5854 5854 5853 5852
5872 5871 5871 5871 5871 5870 5870 5870 5870 5869 5868 5868 5868 5867 5867 5866 5866 5865 5864 5864 5863 5863 5862 5862 5862 5861 5861 5860 5860 5859 5858 5858 5857 5856 5856 5855 5854 5853 5853 5852 5851 5851 5850
5869 5868 5868 5868 5868 5867 5867 5867 5866 5866 5865 5865 5865 5864 5864 5863 5863 5862 5862 5861 5861 5860 5860 5860 5859 5859 5858 5858 5857 5856 5856 5855 5854 5854 5853 5852 5852 5851 5850 5849 5849 5848 5847
5866 5865 5865 5864 5864 5864 5864 5864 5863 5863 5862 5862 5861 5861 5860 5860 5860 5859 5859 5858 5858 5857 5857 5857 5857 5856 5855 5855 5854 5854 5853 5853 5851 5850 5850 5849 5849 5848 5847 5847 5846 5845 5844
5862 5862 5861 5861 5861 5861 5860 5860 5860 5859 5859 5859 5858 5857 5857 5857 5856 5856 5856 5855 5855 5854 5854 5854 5854 5853 5852 5851 5851 5850 5850 5849 5848 5848 5847 5846 5846 5845 5844 5844 5843 5842 5841
5859 5859 5858 5858 5857 5857 5857 5857 5857 5856 5856 5855 5855 5854 5854 5853 5853 5852 5852 5852 5852 5852 5851 5851 5850 5850 5849 5848 5848 5847 5847 5846 5845 5845 5844 5843 5843 5842 5841 5840 5839 5839 5838
5855 5855 5855 5855 5854 5854 5853 5853 5853 5853 5853 5852 5851 5851 5850 5850 5849 5849 5849 5849 5849 5849 5848 5848 5847 5846 5846 5845 5845 5844 5843 5843 5842 5842 5841 5840 5839 5838 5837 5837 5836 5835 5834
5851 5851 5851 5851 5850 5850 5850 5849 5849 5849 5849 5849 5848 5848 5847 5847 5847 5846 5846 5846 5846 5845 5845 5844 5844 5843 5843 5842 5842 5841 5840 5839 5839 5838 5838 5837 5836 5835 5834 5833 5832 5831 5831
Wind_Speed
5 5 5 5 4 4 4 4 4 3 3 4 4 4 4 4 4 3 3 2 2 2 2 2 2 2 2 2 2 2 2 2 2 2 2 2 2 2 3 3 3 4 4
5 5 5 4 3 3 3 3 3 3 3 3 3 3 3 3 2 2 2 1 1 1 1 1 1 1 2 2 2 2 3 3 3 3 3 3 3 3 3 4 4 5 5
4 4 3 3 2 2 2 2 2 3 2 2 2 2 2 2 1 1 0 0 0 0 1 1 1 1 2 2 2 2 3 3 4 4 4 4 4 4 4 5 5 5 6
3 3 3 2 2 2 1 1 2 2 1 2 2 1 1 1 1 1 2 2 1 1 1 2 2 2 3 3 3 3 4 4 4 4 5 5 5 5 5 5 5 5 6
3 2 2 2 3 2 2 2 2 1 1 2 2 2 2 3 3 2 2 3 3 3 2 2 3 3 4 4 4 4 4 5 5 5 5 5 6 6 6 6 6 6 7
3 2 2 2 3 3 3 3 2 2 3 3 4 3 4 4 4 3 4 4 4 4 4 4 4 4 5 5 5 5 5 5 5 6 6 6 6 7 7 7 7 7 8
3 3 4 3 3 3 3 3 3 3 4 4 4 4 4 4 3 4 4 4 5 5 5 4 5 5 5 5 5 6 6 6 6 6 6 7 7 8 8 8 8 8 8
5 5 5 4 4 4 4 4 4 4 5 4 4 4 5 5 5 5 5 5 6 6 5 5 6 5 6 6 6 6 6 7 7 7 7 8 8 8 8 8 8 8 8
6 6 6 6 6 6 6 6 6 6 5 5 5 5 6 6 6 6 7 7 7 7 7 7 7 7 7 7 6 6 6 6 7 7 8 8 8 8 8 8 8 8 9
6 6 7 7 7 7 7 7 7 7 6 7 7 7 7 7 7 7 7 7 7 8 8 8 8 8 7 7 7 7 7 7 8 8 8 8 8 8 9 9 9 9 9
7 7 8 8 8 8 8 8 8 8 8 8 8 8 8 8 8 8 8 8 8 9 9 9 9 8 8 8 8 8 8 8 8 9 9 9 9 9 9 9 10 10 10
8 8 8 9 9 9 9 8 9 9 9 8 9 9 9 9 9 9 10 10 10 10 9 9 9 9 9 9 9 8 8 9 9 9 9 9 9 9 10 10 10 10 10
9 9 9 9 9 9 10 10 10 9 9 9 9 9 9 9 10 10 11 11 11 10 10 9 9 9 9 9 9 9 9 9 9 9 9 9 9 10 10 10 10 10 9
10 10 9 9 9 10 10 10 10 10 10 10 10 10 10 10 10 10 11 12 12 11 10 10 10 9 9 9 9 9 9 9 9 9 9 9 9 9 9 9 9 9 9
10 10 10 10 11 11 11 11 11 11 11 11 11 11 11 11 11 11 11 12 12 12 10 10 10 10 9 9 9 10 9 9 9 9 9 9 9 8 9 9 9 9 9
11 11 11 11 12 12 12 12 12 11 12 12 12 12 11 11 11 11 11 11 12 12 11 10 10 10 9 9 9 10 10 10 9 10 10 10 10 10 9 9 9 9 9
12 11 11 12 12 13 12 12 12 12 12 12 12 12 12 12 12 12 12 12 12 11 11 10 10 10 10 9 9 9 10 10 10 10 10 10 10 10 10 10 10 10 10
12 12 12 12 13 13 13 13 13 13 13 12 12 12 12 12 12 13 12 12 12 11 11 10 11 10 10 10 10 10 10 10 10 11 11 10 11 11 11 11 11 10 10
12 12 12 13 13 13 13 13 13 13 13 13 13 13 13 13 13 13 13 13 12 10 10 10 10 11 11 11 10 10 11 11 11 11 11 11 10 11 11 11 11 11 11
13 13 12 13 13 13 13 14 14 14 13 13 13 14 13 13 13 13 13 12 12 11 11 11 11 11 11 11 11 11 12 11 11 11 11 11 11 11 11 11 11 11 11
14 14 13 13 13 13 13 13 13 13 13 13 13 14 13 13 13 13 12 12 11 11 11 11 12 12 12 12 11 12 12 12 12 12 12 12 12 12 12 12 12 11 12
14 14 14 13 13 13 13 13 13 13 13 13 13 13 13 13 13 12 11 11 11 12 12 12 12 12 12 12 12 13 13 12 12 12 12 12 12 12 12 12 12 12 13
13 13 13 13 13 13 13 13 12 13 13 12 12 12 11 12 12 12 11 11 11 12 12 12 12 12 12 13 12 12 12 12 12 12 12 12 13 13 13 13 13 13 13
14 14 14 14 13 13 13 12 13 12 12 12 11 11 11 12 11 11 10 11 11 11 11 12 12 12 12 12 11 11 11 11 11 12 12 13 13 14 14 14 14 14 14
15 15 15 15 14 14 14 14 13 13 13 13 12 12 12 12 11 11 11 11 11 11 11 11 12 12 12 12 11 11 11 11 12 12 13 13 14 14 14 15 15 14 14
15 15 15 15 15 15 14 14 14 13 13 12 12 12 12 11 10 10 10 11 11 11 12 12 12 12 12 12 12 11 11 12 12 13 13 14 14 14 14 15 14 14 14
Wind_Direction
123 127 119 114 114 121 126 124 119 116 117 125 129 126 120 118 110 103 97 96 85 78 75 44 24 30 23 12 16 13 349 334 324 313 291 277 271 272 270 265 261 260 256
129 130 126 119 110 112 114 118 133 133 132 135 138 142 142 134 122 112 98 80 76 73 55 28 18 16 6 352 347 338 334 326 314 308 293 282 269 269 271 271 268 264 256
134 136 138 134 127 119 110 109 121 140 139 150 154 152 158 160 133 169 189 294 313 303 327 331 333 324 332 331 322 318 327 319 311 305 295 285 275 271 268 267 271 271 259
151 151 150 149 153 154 154 142 117 136 150 172 185 194 202 215 245 276 269 277 280 280 294 302 306 309 313 311 309 310 315 315 311 307 300 288 283 278 271 269 270 271 271
183 188 182 188 199 205 213 237 224 207 204 216 225 239 246 258 268 283 286 277 281 275 276 290 296 302 302 299 299 301 302 301 304 299 296 291 285 282 276 270 269 271 273
212 226 224 222 219 229 234 240 250 238 239 251 252 258 267 270 276 279 281 280 278 271 269 279 289 294 295 295 293 292 293 292 295 294 290 286 284 283 280 274 270 273 273
230 244 254 248 246 260 251 260 261 258 260 262 263 265 271 275 279 283 281 279 279 278 279 283 288 292 293 292 291 291 290 287 286 289 288 284 282 281 279 274 272 273 274
240 248 252 250 257 263 260 263 268 258 263 265 274 272 271 271 269 270 271 276 278 278 279 283 286 288 290 289 290 290 292 288 284 285 287 285 285 283 278 274 273 274 278
247 250 252 260 261 261 262 261 259 258 264 270 273 272 270 267 265 265 271 277 281 280 281 282 281 282 289 290 290 291 293 289 286 285 286 287 286 284 281 277 275 276 278
258 257 260 265 263 265 265 266 264 261 261 270 271 272 273 268 266 269 273 278 285 287 285 282 281 280 285 288 287 289 288 286 287 287 289 287 284 282 281 277 275 275 274
268 265 264 264 262 261 262 265 264 263 266 271 273 272 275 273 266 268 271 278 287 287 284 282 283 282 286 286 286 284 283 286 290 289 288 286 283 280 278 279 278 275 273
269 269 268 266 265 259 261 266 267 266 265 272 273 271 271 270 274 277 275 278 282 280 278 278 282 281 282 283 286 285 282 284 286 285 285 285 282 278 278 279 280 279 274
268 271 270 266 265 262 261 265 267 265 268 272 272 274 275 274 277 278 278 278 277 273 274 276 276 280 281 283 284 283 282 283 283 284 284 283 279 277 279 280 279 278 279
268 267 265 261 261 262 263 267 265 268 273 273 271 272 275 276 277 277 277 279 278 273 273 276 277 278 277 276 279 280 281 282 282 278 280 282 280 281 284 285 280 279 282
267 266 265 261 261 265 266 269 268 271 272 274 272 272 273 274 276 278 276 276 278 276 277 278 275 276 274 274 276 277 276 279 277 275 280 281 280 279 280 285 285 286 287
270 268 267 265 264 265 267 270 271 271 271 274 275 274 271 271 274 278 278 278 278 275 273 274 274 271 270 272 275 278 278 277 276 274 276 277 277 279 282 283 287 294 293
271 269 267 263 263 265 266 268 268 269 272 274 276 277 273 270 272 275 277 277 278 273 268 268 270 269 274 276 280 283 283 279 276 275 278 278 277 279 280 280 284 289 289
269 269 269 267 266 265 265 267 270 271 272 272 275 277 272 271 274 277 278 277 279 274 265 262 267 268 277 280 279 282 282 280 279 278 278 278 276 277 279 279 281 283 286
269 268 268 269 270 268 266 268 270 272 272 273 274 275 272 272 273 276 277 275 272 272 265 261 269 275 279 280 277 278 279 280 279 276 275 275 274 276 280 281 280 283 285
269 270 269 270 273 273 270 269 271 272 272 272 271 272 271 272 273 274 277 274 266 265 267 270 273 275 280 280 277 277 279 279 278 276 274 273 273 276 279 281 281 281 282
270 271 270 272 274 276 275 274 273 271 271 272 273 273 270 270 274 277 275 275 268 267 269 272 272 273 278 279 280 280 280 279 276 274 273 272 274 276 278 279 278 279 281
271 272 271 272 271 274 275 274 274 270 270 272 273 272 270 270 270 272 272 275 271 267 267 271 274 276 280 280 281 279 278 278 276 274 274 275 276 275 276 276 276 277 278
270 272 272 273 270 269 270 271 274 273 276 276 272 268 269 272 271 272 274 275 273 267 269 272 275 277 279 281 282 280 278 276 278 278 277 277 278 276 276 277 277 278 276
270 270 269 269 268 268 268 267 270 274 274 274 272 270 272 272 270 269 270 273 273 269 270 274 277 279 281 281 281 282 281 279 280 278 277 278 279 278 276 276 277 276 276
269 270 270 269 270 270 270 270 269 269 268 270 269 267 270 273 271 268 268 273 274 273 272 275 278 279 281 282 281 282 284 280 279 278 278 279 279 279 279 278 278 276 277
267 269 270 271 269 269 270 271 271 269 269 268 267 267 270 273 274 272 271 274 276 276 272 272 273 277 280 280 282 282 282 281 281 281 281 280 280 279 279 278 279 279 279